#timestamp,LO_Frequency,Hit,StdDev 
1697032815.5,286046997.4,N
1697032835.3,286046997.8,N
1697032855.1,286046996.6,N
1697032875.9,286046996.7,N
1697032895.7,286046996.9,N
1697032915.6,286046997.4,N
1697032935.4,286046997.9,N
1697032955.2,286046995.5,N
1697032975.1,286046994.9,N
1697032976.0,286046994.9,N
1697032995.8,286046995.6,N
1697033015.6,286046995.1,N
1697033035.5,286046995.6,N
1697033055.3,286046995.9,N
1697033075.2,286046996.4,N
1697033095.9,286046996.0,N
1697033115.7,286046993.4,N
1697033135.6,286046993.6,N
1697033155.4,286046991.7,N
1697033175.2,286046994.8,N
1697033195.1,286046993.6,N
1697033196.0,286046993.6,N
1697033215.8,286046994.1,N
1697033235.7,286046994.8,N
1697033255.5,286046991.8,N
1697033275.3,286046992.8,N
1697033295.2,286046992.8,N
1697033315.0,286046993.1,N
1697033315.9,286046993.1,Y
1697033335.8,286046995.7,P
1697033355.6,286046994.9,P
1697033375.4,286046994.9,P
1697033395.3,286046998.0,Y
1697033415.1,286046999.8,P
1697033435.9,286047000.0,N
1697033455.7,286047000.2,N
1697033475.5,286046998.9,N
1697033495.4,286046999.4,N
1697033515.2,286046999.2,N
1697033535.0,286046997.9,N
1697033535.9,286046997.9,N
1697033555.8,286046997.0,N
1697033575.6,286046997.0,N
1697033595.5,286046996.9,N
1697033615.3,286046999.6,N
1697033635.1,286046996.9,N
1697033655.9,286046996.7,N
1697033675.7,286046994.9,Y
1697033695.5,286047001.2,P
1697033715.4,286046999.1,N
1697033735.2,286046998.7,N
1697033755.1,286046998.3,N
1697033756.0,286046998.3,N
1697033775.8,286046998.3,N
1697033795.6,286046998.9,N
1697033815.5,286046998.7,N
1697033835.3,286046998.5,N
1697033855.1,286046999.3,N
1697033875.9,286046999.0,N
1697033895.7,286046999.1,N
1697033915.6,286046999.4,N
1697033935.4,286046999.2,N
1697033955.2,286046996.5,Y
1697033975.1,286046998.7,P
1697033976.0,286046998.7,P
1697033995.8,286046998.1,P
1697034015.6,286046999.1,N
1697034035.5,286046999.6,N
1697034055.3,286046999.1,N
1697034075.2,286046998.3,Y
1697034095.9,286046999.3,P
1697034115.7,286046998.5,P
1697034135.6,286046998.8,P
1697034155.4,286046998.2,Y
1697034175.3,286046999.9,P
1697034195.1,286047000.4,N
1697034196.0,286047000.4,N
1697034215.8,286046998.1,Y
1697034235.7,286046998.5,P
1697034255.5,286046998.8,N
1697034275.3,286047001.2,N
1697034295.2,286046998.1,N
1697034315.0,286046998.2,N
1697034315.9,286046998.2,N
1697034335.8,286046998.7,N
1697034355.6,286047001.0,N
1697034375.4,286047001.0,N
1697034395.3,286046998.5,N
1697034415.1,286046998.8,N
1697034435.8,286046998.9,N
1697034455.7,286046998.4,N
1697034475.5,286046999.3,N
1697034495.4,286046999.1,N
1697034515.2,286046999.6,N
1697034535.0,286046996.7,Y
1697034535.9,286046996.7,P
1697034555.8,286046998.8,N
1697034575.6,286046998.9,N
1697034595.4,286046999.5,N
1697034615.3,286046999.2,N
1697034635.1,286046996.5,Y
1697034655.9,286046998.8,P
1697034675.7,286046999.2,P
1697034695.5,286046999.5,N
1697034715.4,286046996.9,Y
1697034735.2,286046998.4,P
1697034755.1,286046998.2,P
1697034756.0,286046998.2,P
1697034775.8,286047001.2,Y
1697034795.6,286047000.4,P
1697034815.5,286046999.8,N
1697034835.3,286047002.1,N
1697034855.2,286046999.7,N
1697034875.9,286047000.1,N
1697034895.7,286047000.5,N
1697034915.6,286047001.0,N
1697034935.4,286047000.0,N
1697034955.2,286046999.7,N
1697034975.1,286047002.2,N
1697034976.0,286047002.2,N
1697034995.8,286047002.8,N
1697035015.7,286047002.3,N
1697035035.5,286047002.2,N
1697035055.3,286047000.7,N
1697035075.2,286047000.0,N
1697035095.0,286047000.3,N
1697035095.9,286047000.3,N
1697035115.8,286047000.1,N
1697035135.6,286047000.4,N
1697035155.4,286047001.0,N
1697035175.3,286047000.7,N
1697035195.1,286047000.9,N
1697035215.9,286047000.1,N
1697035235.7,286047002.6,N
1697035255.5,286047002.0,N
1697035275.4,286047002.7,N
1697035295.2,286047002.5,N
1697035315.0,286047002.4,N
1697035315.9,286047002.4,N
1697035335.8,286047000.5,N
1697035355.6,286047000.6,N
1697035375.5,286047000.5,N
1697035395.3,286047002.8,N
1697035415.1,286047002.1,N
1697035435.9,286047000.2,N
1697035455.7,286047000.4,N
1697035475.5,286047000.4,N
1697035495.4,286047000.7,N
1697035515.2,286047000.0,N
1697035535.0,286047000.1,N
1697035536.0,286047000.1,N
1697035555.8,286046999.8,N
1697035575.6,286046999.8,N
1697035595.5,286047000.1,N
1697035615.3,286047002.8,N
1697035635.1,286046999.9,N
1697035655.9,286047000.3,N
1697035675.7,286046999.9,N
1697035695.6,286047000.2,N
1697035715.4,286046999.8,N
1697035735.2,286047000.1,N
1697035755.1,286047000.7,N
1697035756.0,286047000.7,N
1697035775.8,286047000.4,N
1697035795.6,286046999.7,N
1697035815.5,286047001.6,N
1697035835.3,286047002.6,N
1697035855.2,286047002.8,N
1697035875.9,286047001.0,N
1697035895.7,286047000.1,N
1697035915.6,286047002.3,N
1697035935.4,286047002.0,N
1697035955.2,286047001.9,N
1697035975.1,286047002.0,N
1697035976.0,286047002.0,N
1697035995.8,286047001.9,N
1697036015.7,286047001.5,N
1697036035.5,286047001.5,N
1697036055.3,286047001.6,N
1697036105.2,286047002.0,E
1697036115.1,286047000.3,N
1697036135.9,286046998.7,P
1697036155.7,286046998.4,N
1697036175.5,286046998.5,N
1697036195.4,286046998.2,N
1697036215.2,286047000.6,N
1697036235.1,286047000.6,N
1697036236.0,286047000.6,N
1697036255.8,286047000.5,N
1697036275.6,286047000.4,N
1697036295.5,286047000.5,N
1697036315.3,286047001.0,N
1697036335.1,286046999.9,N
1697036355.9,286047000.6,N
1697036375.7,286046999.7,N
1697036395.6,286047002.3,N
